User: anonymous   Login
Location: Caltech
(34.1382°N, 118.1253°W)
Time: 07:00:09
(UTC-08:00)
Language:

Cosmos 2219 - Orbit

View from above orbital plane
View from above orbital plane
View from above satellite
View from above satellite

Ground track
Ground track

The orbit data is extracted from the following two-line orbital elements,

1 22219U 92076A   17346.94395971 +.00000224 +00000-0 +14349-3 0  9990
2 22219 071.0589 184.3203 0016557 118.7674 241.5114 14.13628522293159
Epoch (UTC): 12 December 2017 22:39:18
Eccentricity: 0.0016557
inclination: 71.0589°
perigee height: 835 km
apogee height: 859 km
right ascension of ascending node: 184.3203°
argument of perigee: 118.7674°
revolutions per day: 14.13628522
mean anomaly at epoch: 241.5114°
orbit number at epoch: 29315

The dashed part of the orbit path shows where the satellite is in the earth's shadow,  

DLR